Location: Aydie
(43.5695°N, 0.1043°W)
Time: 11:43:16
(UTC+00:00)

Cosmos 2251 Rocket - Pass Details

Date: 17 November 2025
Orbit: 760 x 788 km, 74.0° (Epoch: 11 December)

Event Time Altitude Azimuth Distance (km) Brightness Sun altitude
Rises 17:59:38 0° 196° (SSW) 3,226 7.1 -15.6°
Reaches altitude 10° 18:02:00 10° 196° (SSW) 2,308 6.3 -16.0°
Maximum altitude 18:07:15 84° 109° (ESE) 786 3.4 -16.9°
Drops below altitude 10° 18:12:35 10° 22° (NNE) 2,343 5.7 -17.9°
Enters shadow 18:12:38 10° 22° (NNE) 2,365 5.7 -17.9°
